FW6381 Weather Reports


Display with metric or nautical units.
time (UTC)temp
F
wind
direction
speed
MPH
gust
MPH
rain 1hr
in
rain 24hr
in
rain mn
in
humidity
%
barometer
mb
20260506132005 45 92 2.0 5.0 0.02 1.26 0.54 99 1008.8
20260506131503 45 92 3.0 5.0 0.02 1.26 0.54 99 1008.8
20260506131214 45 92 3.0 8.0 0.02 1.26 0.54 99 1008.8
20260506130713 45 91 3.0 8.0 0.02 1.26 0.54 100 1008.7
20260506130004 45 90 3.0 9.0 0.02 1.26 0.54 99 1008.7
20260506125505 44 92 1.0 8.0 0.02 1.26 0.54 99 1008.6
20260506125004 44 92 2.0 4.0 0.02 1.26 0.54 99 1008.6
20260506124503 44 92 2.0 8.0 0.03 1.26 0.54 99 1008.6
20260506124003 44 89 3.0 8.0 0.02 1.25 0.53 99 1008.5
20260506123503 44 85 4.0 12.0 0.02 1.25 0.53 99 1008.7
20260506123003 44 91 4.0 12.0 0.02 1.25 0.53 99 1008.7
20260506122503 44 99 4.0 12.0 0.02 1.24 0.52 99 1008.5
20260506122003 44 98 4.0 8.0 0.02 1.24 0.52 99 1008.4
20260506121505 44 97 3.0 10.0 0.02 1.24 0.52 99 1008.4
20260506121003 44 96 4.0 10.0 0.02 1.24 0.52 99 1008.4
20260506120503 44 93 4.0 10.0 0.03 1.24 0.52 99 1008.3
20260506120005 44 90 4.0 10.0 0.03 1.24 0.52 99 1008.3
20260506115504 44 88 3.0 10.0 0.03 1.24 0.52 99 1008.2
20260506115213 44 88 3.0 8.0 0.03 1.24 0.52 99 1008.2
20260506114714 44 87 3.0 10.0 0.05 1.24 0.52 99 1008.2
20260506114003 44 87 4.0 10.0 0.03 1.23 0.51 99 1008.2
20260506113714 44 88 3.0 10.0 0.03 1.23 0.51 99 1008.2
20260506113003 44 92 5.0 15.0 0.03 1.23 0.51 99 1008.2
20260506112503 45 90 7.0 15.0 0.02 1.22 0.49 99 1008.2
20260506112003 45 91 5.0 12.0 0.02 1.22 0.49 99 1008.1
20260506111503 45 93 5.0 14.0 0.03 1.22 0.49 99 1008.2
20260506111003 45 86 6.0 14.0 0.03 1.22 0.49 99 1008.3
20260506110503 45 85 5.0 14.0 0.03 1.21 0.48 100 1008.4
20260506110003 45 94 3.0 9.0 0.03 1.21 0.48 100 1008.6
20260506105714 45 90 3.0 8.0 0.03 1.21 0.48 100 1008.5
20260506105003 45 59 4.0 12.0 0.03 1.20 0.47 100 1008.4
20260506104716 45 58 4.0 12.0 0.03 1.20 0.47 100 1008.4
20260506104003 45 60 3.0 8.0 0.05 1.20 0.47 100 1008.0
20260506103503 45 60 3.0 8.0 0.05 1.20 0.47 100 1008.2
20260506103005 45 57 2.0 6.0 0.06 1.20 0.47 99 1008.1
20260506102503 45 55 2.0 6.0 0.06 1.20 0.47 100 1008.0
20260506102213 45 52 2.0 6.0 0.06 1.20 0.47 99 1007.8
20260506101503 45 46 2.0 6.0 0.06 1.18 0.46 99 1007.8
20260506101213 45 47 2.0 6.0 0.06 1.18 0.46 99 1008.0
20260506100505 45 46 2.0 6.0 0.06 1.17 0.45 99 1008.2
20260506100005 45 44 2.0 8.0 0.07 1.17 0.45 99 1008.5
20260506095503 45 40 2.0 8.0 0.07 1.17 0.45 99 1008.5
20260506095214 45 38 2.0 5.0 0.07 1.16 0.45 99 1008.5
20260506094503 45 39 4.0 8.0 0.07 1.16 0.44 99 1008.7
20260506094003 45 40 3.0 8.0 0.07 1.15 0.43 99 1008.6
20260506093503 46 42 3.0 8.0 0.07 1.15 0.43 99 1008.5
20260506093003 46 45 4.0 8.0 0.07 1.14 0.41 99 1008.5
20260506092715 46 47 4.0 8.0 0.08 1.14 0.41 99 1008.4
20260506092005 46 51 3.0 8.0 0.07 1.13 0.40 99 1008.5
20260506091505 46 54 4.0 6.0 0.07 1.13 0.40 99 1008.5
20260506091003 46 56 4.0 6.0 0.08 1.13 0.40 99 1008.5
20260506090503 46 59 4.0 8.0 0.07 1.12 0.39 99 1008.5
20260506090005 46 58 4.0 8.0 0.07 1.10 0.38 99 1008.6
20260506085503 46 54 4.0 8.0 0.07 1.10 0.38 99 1008.5
20260506085214 46 54 5.0 8.0 0.06 1.09 0.37 99 1008.4
20260506084503 46 58 4.0 8.0 0.06 1.09 0.37 99 1008.5
20260506084004 46 55 4.0 12.0 0.06 1.08 0.36 99 1008.0
20260506083713 46 55 4.0 12.0 0.06 1.08 0.36 99 1008.1
20260506083214 46 49 4.0 9.0 0.06 1.08 0.36 99 1008.1
20260506082715 46 42 5.0 12.0 0.05 1.06 0.33 99 1008.0
20260506082003 47 49 4.0 12.0 0.05 1.06 0.33 99 1008.2
20260506081503 47 68 3.0 8.0 0.05 1.06 0.33 99 1008.1
20260506081003 47 70 3.0 9.0 0.05 1.05 0.32 99 1008.0
20260506080715 47 57 3.0 9.0 0.05 1.05 0.32 99 1008.0
20260506073503 47 54 3.0 6.0 0.07 1.02 0.30 99 1008.2
20260506073214 47 57 2.0 6.0 0.07 1.02 0.30 99 1008.1
20260506072503 47 58 3.0 6.0 0.06 1.01 0.29 99 1008.2
20260506072214 47 59 3.0 6.0 0.06 1.01 0.29 99 1008.2
20260506071503 47 60 1.0 5.0 0.07 1.01 0.29 99 1008.2
20260506071003 47 61 1.0 4.0 0.06 1.00 0.28 99 1008.3
20260506070503 47 61 2.0 4.0 0.06 1.00 0.28 99 1008.4
20260506070214 47 61 2.0 4.0 0.05 0.99 0.26 99 1008.4
20260506062503 48 64 3.0 10.0 0.06 0.95 0.23 99 1008.5
20260506062213 48 63 3.0 10.0 0.06 0.95 0.23 99 1008.4
20260506061503 48 62 3.0 6.0 0.06 0.94 0.22 99 1008.2
20260506061003 48 62 2.0 6.0 0.07 0.94 0.22 99 1008.3
20260506060503 48 63 2.0 5.0 0.08 0.94 0.22 99 1008.6
20260506051213 48 0 0.0 0.0 0.14 0.90 0.15 99 1009.6
20260506050714 48 0 0.0 0.0 0.14 0.89 0.14 99 1009.5
20260506045003 48 58 1.0 5.0 0.10 0.84 0.09 99 1009.2
20260506044503 48 58 2.0 5.0 0.09 0.83 0.08 98 1009.2
20260506044003 48 49 3.0 6.0 0.08 0.82 0.07 98 1009.0
20260506043503 49 33 3.0 6.0 0.07 0.80 0.06 99 1009.1
20260506043213 49 19 3.0 6.0 0.06 0.79 0.05 99 1009.1
20260506042503 49 353 2.0 5.0 0.05 0.78 0.03 99 1008.9
20260506042003 49 345 1.0 4.0 0.03 0.77 0.02 99 1008.8
20260506041503 49 341 0.0 4.0 0.03 0.76 0.01 99 1008.9
20260506041214 49 338 0.0 3.0 0.03 0.76 0.01 98 1008.9
20260506040503 49 0 0.0 0.0 0.03 0.75 0.00 98 1009.1
20260506040005 49 0 0.0 0.0 0.03 0.75 0.00 98 1008.9
20260506035503 49 331 1.0 3.0 0.05 0.75 0.75 98 1008.7
20260506035005 49 331 1.0 4.0 0.05 0.74 0.74 98 1008.9
20260506034503 49 331 1.0 4.0 0.05 0.74 0.74 98 1008.9
20260506034214 49 331 1.0 4.0 0.06 0.74 0.74 98 1008.9
20260506033505 49 331 1.0 4.0 0.07 0.74 0.74 98 1008.8
20260506033004 49 331 0.0 4.0 0.07 0.74 0.74 98 1008.8
20260506032503 49 330 0.0 3.0 0.08 0.74 0.74 98 1009.2
20260506032003 49 330 0.0 3.0 0.08 0.74 0.74 98 1009.2
20260506031504 49 0 0.0 0.0 0.07 0.72 0.72 98 1009.0
20260506031214 49 0 0.0 0.0 0.07 0.72 0.72 98 1009.3
20260506030503 49 0 0.0 0.0 0.07 0.71 0.71 98 1009.2
20260506030003 49 0 0.0 0.0 0.07 0.71 0.71 98 1009.2
20260506025503 49 0 0.0 0.0 0.06 0.70 0.70 98 1009.1
20260506025214 49 0 0.0 0.0 0.05 0.69 0.70 98 1009.2
20260506024503 49 0 0.0 0.0 0.05 0.69 0.69 98 1009.5
20260506024003 49 329 0.0 1.0 0.03 0.68 0.68 98 1009.6
20260506023504 49 329 0.0 1.0 0.02 0.67 0.67 98 1009.5
20260506023003 49 0 0.0 0.0 0.02 0.68 0.67 98 1009.4
20260506022503 49 0 0.0 0.0 0.01 0.67 0.66 98 1009.5
20260506022005 49 0 0.0 0.0 0.02 0.67 0.66 98 1009.5
20260506021503 48 0 0.0 0.0 0.02 0.67 0.66 98 1009.5
20260506021003 49 0 0.0 0.0 0.02 0.68 0.66 98 1009.5
20260506020505 48 329 0.0 1.0 0.01 0.67 0.64 98 1009.4
20260506020003 49 329 0.0 1.0 0.02 0.67 0.64 98 1009.3
20260506015503 49 329 0.0 1.0 0.02 0.67 0.64 98 1009.4
20260506015005 49 329 0.0 3.0 0.03 0.67 0.64 98 1009.6
20260506014712 49 329 0.0 3.0 0.03 0.67 0.64 98 1009.5
20260506014003 49 329 0.0 3.0 0.05 0.67 0.64 98 1009.8
20260506013504 49 329 1.0 4.0 0.07 0.67 0.64 98 1009.6
20260506013003 49 329 1.0 4.0 0.08 0.67 0.64 98 1009.8
20260506012503 49 329 1.0 3.0 0.09 0.67 0.64 96 1009.8
20260506012215 49 329 1.0 3.0 0.10 0.67 0.64 96 1009.6
20260506011505 49 329 0.0 3.0 0.12 0.66 0.63 96 1009.4
20260506011003 49 329 0.0 3.0 0.13 0.66 0.63 96 1009.4
20260506010503 49 329 0.0 3.0 0.14 0.66 0.63 96 1009.3
20260506010005 49 329 1.0 3.0 0.14 0.64 0.62 96 1009.3
20260506005505 49 329 1.0 3.0 0.16 0.64 0.62 96 1009.4
20260506005213 49 329 1.0 4.0 0.17 0.64 0.62 96 1009.4
20260506004503 49 330 2.0 6.0 0.17 0.62 0.60 96 1009.6
20260506004213 49 332 2.0 6.0 0.18 0.62 0.60 96 1009.5
20260506003505 49 339 0.0 4.0 0.17 0.60 0.57 96 1009.5
20260506003003 49 0 0.0 0.0 0.17 0.59 0.56 96 1009.5
20260506002505 49 338 0.0 0.0 0.16 0.57 0.55 96 1009.3
20260506002003 49 338 0.0 4.0 0.16 0.55 0.53 96 1009.3
20260506001505 49 338 0.0 4.0 0.15 0.54 0.52 96 1009.3
20260506001003 49 0 0.0 0.0 0.15 0.53 0.51 96 1009.0
20260506000503 49 0 0.0 0.0 0.15 0.52 0.49 96 1009.1
20260506000003 49 338 0.0 3.0 0.15 0.51 0.48 96 1009.1
20260505235504 49 338 1.0 3.0 0.14 0.48 0.46 95 1009.0
20260505235004 49 338 1.0 4.0 0.12 0.46 0.44 95 1009.2
20260505234503 49 338 1.0 4.0 0.12 0.45 0.43 95 1009.0
20260505234003 49 338 1.0 5.0 0.10 0.44 0.41 95 1008.8
20260505233714 49 338 2.0 5.0 0.12 0.44 0.41 95 1008.8
20260505233213 49 338 1.0 5.0 0.09 0.41 0.39 95 1009.1
20260505232503 49 0 0.0 0.0 0.12 0.41 0.39 95 1008.6
20260505232003 49 0 0.0 0.0 0.09 0.39 0.37 95 1008.5
20260505231503 49 0 0.0 0.0 0.10 0.39 0.37 95 1008.5
20260505231003 49 0 0.0 0.0 0.10 0.38 0.36 95 1008.6
20260505230503 49 338 1.0 4.0 0.10 0.37 0.35 95 1008.7
20260505230003 49 339 2.0 6.0 0.10 0.36 0.33 95 1008.8
20260505225505 49 339 2.0 6.0 0.10 0.34 0.32 95 1008.8
20260505225003 49 336 3.0 10.0 0.12 0.34 0.32 95 1008.9
20260505224503 49 333 3.0 10.0 0.10 0.33 0.31 95 1008.9
20260505224005 49 332 3.0 8.0 0.12 0.33 0.31 94 1009.0
20260505223503 49 333 3.0 8.0 0.13 0.32 0.30 94 1009.0
20260505223004 49 334 2.0 5.0 0.13 0.31 0.29 94 1009.0
20260505222713 49 334 2.0 5.0 0.14 0.31 0.29 94 1009.0
20260505222214 49 332 3.0 8.0 0.15 0.30 0.28 94 1008.9
20260505221503 49 332 4.0 12.0 0.17 0.29 0.26 93 1008.9
20260505221003 50 333 5.0 13.0 0.18 0.28 0.25 93 1008.9
20260505220713 50 329 6.0 15.0 0.18 0.28 0.25 93 1008.8
20260505220005 50 333 7.0 15.0 0.18 0.25 0.23 93 1008.7
20260505215503 50 337 7.0 17.0 0.18 0.24 0.22 93 1008.9
20260505215003 50 335 6.0 17.0 0.17 0.23 0.21 93 1009.0
20260505214503 50 336 6.0 14.0 0.17 0.23 0.21 93 1008.8
20260505214214 51 334 7.0 14.0 0.17 0.22 0.20 93 1008.9
20260505213503 51 335 6.0 15.0 0.15 0.20 0.17 93 1008.6
20260505213003 52 332 6.0 20.0 0.14 0.18 0.16 93 1008.4
20260505212505 53 326 7.0 20.0 0.13 0.17 0.15 93 1008.3
20260505212003 53 293 7.0 20.0 0.09 0.14 0.11 93 1008.5
20260505211503 54 242 7.0 18.0 0.07 0.12 0.09 92 1008.2
20260505211216 54 233 8.0 18.0 0.06 0.10 0.08 92 1008.0
20260505210503 54 228 8.0 19.0 0.03 0.08 0.06 91 1007.8
20260505210003 54 222 7.0 18.0 0.02 0.07 0.05 91 1007.6
20260505205503 54 219 7.0 19.0 0.01 0.06 0.03 90 1007.5
20260505205214 55 221 7.0 19.0 0.01 0.06 0.03 90 1007.5
20260505204505 55 227 6.0 18.0 0.01 0.06 0.03 89 1007.3
20260505204003 55 235 7.0 18.0 0.00 0.05 0.02 88 1007.2
20260505203505 56 233 7.0 18.0 0.00 0.05 0.02 88 1007.1
20260505203005 56 227 9.0 18.0 0.00 0.05 0.02 87 1006.9
20260505202503 56 225 9.0 18.0 0.00 0.05 0.02 86 1007.0
20260505202003 56 222 9.0 19.0 0.00 0.05 0.02 86 1007.0
20260505201505 56 224 9.0 20.0 0.00 0.05 0.02 86 1007.0
20260505201003 56 223 10.0 28.0 0.00 0.05 0.02 84 1007.1
20260505200712 56 222 11.0 28.0 0.00 0.05 0.02 83 1007.1
20260505200003 56 222 11.0 24.0 0.00 0.05 0.02 82 1007.2
20260505195504 57 221 11.0 23.0 0.00 0.05 0.02 81 1007.0
20260505195005 58 220 10.0 22.0 0.00 0.05 0.02 79 1006.7
20260505194503 58 223 10.0 26.0 0.00 0.05 0.02 78 1006.5
20260505194003 59 223 10.0 27.0 0.00 0.05 0.02 78 1006.4
20260505193503 60 226 12.0 27.0 0.00 0.05 0.02 77 1006.4
20260505193005 60 226 11.0 27.0 0.00 0.05 0.02 76 1006.4
20260505192503 61 223 11.0 27.0 0.00 0.05 0.02 74 1006.3
20260505192003 62 218 10.0 22.0 0.00 0.05 0.02 72 1006.0
20260505191503 63 223 11.0 24.0 0.00 0.05 0.02 71 1006.3
20260505191003 64 232 15.0 37.0 0.00 0.05 0.02 69 1006.1
20260505190503 65 241 18.0 42.0 0.00 0.05 0.02 68 1006.2
20260505190005 66 244 18.0 42.0 0.00 0.05 0.02 67 1006.2
20260505185503 66 244 18.0 44.0 0.00 0.05 0.02 66 1006.2
20260505185003 66 249 18.0 44.0 0.00 0.05 0.02 65 1006.0
20260505184503 67 252 17.0 37.0 0.00 0.05 0.02 65 1006.0
20260505184215 67 250 17.0 37.0 0.00 0.05 0.02 65 1005.8
20260505183503 67 240 18.0 35.0 0.00 0.05 0.02 65 1005.9
20260505183213 67 243 17.0 35.0 0.00 0.05 0.02 66 1005.7
20260505182503 66 256 18.0 35.0 0.00 0.05 0.02 66 1005.8
20260505182003 66 248 20.0 44.0 0.00 0.05 0.02 67 1005.6
20260505181504 66 249 20.0 44.0 0.00 0.05 0.02 67 1005.6
20260505181003 66 260 18.0 41.0 0.00 0.05 0.02 68 1005.8
20260505180503 66 260 15.0 37.0 0.00 0.05 0.02 68 1005.6
20260505180003 65 252 16.0 41.0 0.00 0.05 0.02 68 1005.4
20260505175503 65 246 17.0 41.0 0.00 0.05 0.02 69 1005.5
20260505175003 65 249 17.0 38.0 0.00 0.05 0.02 68 1005.5
20260505174503 66 246 18.0 35.0 0.00 0.05 0.02 68 1005.3
20260505174003 66 242 17.0 36.0 0.00 0.05 0.02 69 1005.6
20260505173503 66 255 19.0 42.0 0.00 0.05 0.02 69 1005.5
20260505173003 66 251 21.0 47.0 0.00 0.05 0.02 69 1005.5
20260505172503 66 246 21.0 52.0 0.00 0.05 0.02 69 1005.5
20260505172003 65 247 21.0 54.0 0.00 0.05 0.02 70 1005.6
20260505171503 65 246 16.0 54.0 0.00 0.05 0.02 69 1005.6
20260505171003 65 244 17.0 38.0 0.00 0.05 0.02 69 1005.6
20260505170505 65 243 22.0 44.0 0.00 0.05 0.02 68 1005.5
20260505170003 65 245 23.0 44.0 0.00 0.05 0.02 67 1005.5
20260505165503 66 244 20.0 44.0 0.00 0.05 0.02 67 1005.4
20260505165003 66 242 18.0 44.0 0.00 0.05 0.02 66 1005.5
20260505164503 66 234 18.0 37.0 0.00 0.05 0.02 67 1005.4
20260505164005 66 231 20.0 37.0 0.00 0.05 0.02 69 1005.5
20260505163503 65 234 19.0 35.0 0.00 0.05 0.02 68 1005.3
20260505163005 65 234 16.0 37.0 0.00 0.05 0.02 68 1005.0
20260505162504 65 229 15.0 38.0 0.00 0.05 0.02 68 1005.0
20260505162214 65 228 16.0 38.0 0.00 0.05 0.02 68 1004.9
20260505161503 64 229 17.0 35.0 0.00 0.05 0.02 69 1004.6
20260505161003 63 236 16.0 36.0 0.00 0.05 0.02 70 1004.9
20260505160713 63 237 16.0 36.0 0.00 0.05 0.02 70 1005.0
20260505153004 65 247 19.0 37.0 0.00 0.05 0.02 65 1004.9
20260505152504 65 244 18.0 38.0 0.00 0.05 0.02 65 1004.6
20260505152003 65 241 17.0 38.0 0.00 0.05 0.02 66 1004.2
20260505151713 65 240 16.0 32.0 0.00 0.05 0.02 67 1004.4
20260505151003 64 242 15.0 37.0 0.00 0.05 0.02 68 1004.3
20260505150503 64 244 14.0 27.0 0.00 0.05 0.02 69 1004.2
20260505140503 64 246 16.0 36.0 0.00 0.05 0.02 68 1003.8